Regional Weather Roundup
Issued by NWS

Home | Current Version | Previous Version | Graphics & Text | Print | Product List | Glossary On
Versions: 1 2 3 4 5 6 7 8 9 10 11 12 13 14 15 16 17 18 19 20 21 22 23 24 25 26 27 28 29 30 31 32 33 34 35 36 37 38 39 40 41 42 43 44 45 46 47 48 49 50
000
ASUS45 KBOU 180407
RWRCO

WEATHER ROUNDUP FOR COLORADO
NATIONAL WEATHER SERVICE DENVER/BOULDER CO
900 PM MST WED DEC 17 2014

NOTE: "FAIR" INDICATES FEW OR NO CLOUDS BELOW 12000 FEET WITH NO
SIGNIFICANT WEATHER AND/OR OBSTRUCTIONS TO VISIBILITY.

COZ001>005-013-030-031-180500-
...NORTHWEST COLORADO...

CITY           SKY/WX    TMP DP  RH WIND       PRES   REMARKS
CRAIG          CLOUDY    27  26  96 CALM      30.03R FOG
HAYDEN         CLOUDY    27  25  93 CALM      30.01R
MEEKER         CLOUDY    26  25  96 CALM      30.02R
MOUNT WERNER   NOT AVBL
STEAMBOAT SPGS CLOUDY    25  25  99 CALM      30.00S VSB 3/4
WALDEN         MOCLDY    18  14  86 SE3       29.98R
$$

COZ006>008-011-180500-
...WEST CENTRAL VALLEYS...

CITY           SKY/WX    TMP DP  RH WIND       PRES   REMARKS
GRAND JUNCTION LGT RAIN  35  35 100 CALM      30.03R FOG
MONTROSE       FLURRIES  34  33  96 CALM      30.04R
EAGLE          FLURRIES  27  27 100 CALM      30.03R
RIFLE          CLOUDY    34  32  92 W3        30.01S FOG
DELTA          CLOUDY    37  36  95 CALM      30.02S
NUCLA          MIX PCPN  34  32  93 CALM      30.06R
$$

COZ017>023-064>068-180500-
...SOUTHWEST COLORADO...

CITY           SKY/WX    TMP DP  RH WIND       PRES   REMARKS
DURANGO        CLOUDY    31  30  96 SW9       30.03R WCI  23
CORTEZ         CLOUDY    33  32  96 W3        30.06R
PAGOSA SPRINGS LGT SNOW  31  31 100 CALM      30.03R
TELLURIDE      LGT SNOW  26  26  99 SW3       30.01S
WOLF CREEK PAS SNOW      14  14 100 MISG      30.00R VSB 1/2
$$

COZ009-010-012-014-032>034-037-058>063-180500-
...CENTRAL COLORADO...

CITY           SKY/WX    TMP DP  RH WIND       PRES   REMARKS
ASPEN          LGT SNOW  28  26  92 CALM      29.98R FOG
BUENA VISTA    CLOUDY    26  20  76 SE3       29.96S
COPPER MTN     FLURRIES  19  14  79 W17       29.97S WCI   4
BERTHOUD PASS  CLOUDY    12   7  79 MISG      29.97S
COTTONWOOD PAS CLOUDY    28  23  80 S3        29.97R
GUNNISON       MOCLDY    25  19  80 CALM      30.03R
KREMMLING      FLURRIES  18  14  86 N3        30.02R
LEADVILLE      MOCLDY    16  14  92 NE6       29.96R WCI   7
MONARCH PASS   CLOUDY    16  14  93 MISG      30.07S
SALIDA         CLOUDY    32  23  69 CALM      30.04S
SUNLIGHT       CLOUDY   N/A N/A N/A CALM      30.00S FOG
WILKERSON PASS LGT SNOW  19  18  93 NW3       29.99S
$$

COZ069>075-180500-
...SAN LUIS VALLEY/SANGRE DE CRISTO MOUNTAINS...

CITY           SKY/WX    TMP DP  RH WIND       PRES   REMARKS
ALAMOSA        CLOUDY    22  20  92 E5        30.00S WCI  16
LA VETA PASS   CLOUDY    21  19  93 MISG      29.97R FOG
SAGUACHE       MIX PCPN  27  25  93 SE5       30.02R WCI  21
$$

COZ035-036-038>040-180500-
...NORTHERN COLORADO FRONT RANGE...

CITY           SKY/WX    TMP DP  RH WIND       PRES   REMARKS
DENVER INTL AP CLOUDY    32  26  78 CALM      29.96R
DMNS CITY PARK   N/A     33  26  78 E1        29.97S
AURORA         CLOUDY    32  28  84 E5        29.97R WCI  28
FRONT RANGE AP NOT AVBL
ERIE MUNI ARPT   N/A     28  26  92 CALM      29.97R
BOULDER MUN AP PTCLDY    32  27  80 CALM      29.96S
CENTENNIAL     CLOUDY    34  26  72 SE3       29.96R
BROOMFIELD     CLOUDY    32  25  74 MISG      29.96S
FORT COLLINS   MOCLDY    27  19  74 CALM      29.98R
LONGMONT       MOCLDY    28  25  89 S3        29.99R
$$

COZ041-046-047-076>085-087-088-180500-
...PIKES PEAK/PALMER DIVIDE AND SOUTHERN FOOTHILLS...

CITY           SKY/WX    TMP DP  RH WIND       PRES   REMARKS
COLO. SPRINGS  LGT SNOW  26  23  88 CALM      29.98S FOG
A. F. ACADEMY  FLURRIES  31  30  99 N1        29.96S
ELLICOTT       NOT AVBL
FALCON         FLURRIES  30  29  96 CALM      29.97S
FORT CARSON    PTCLDY    26  23  87 CALM      29.98R
LIMON          CLOUDY    22  21  96 SE7       29.98R WCI  13
MONUMENT HILL  LGT SNOW  30  30 100 CALM      29.95S
TRINIDAD       PTCLDY    29  23  78 W9        29.96S WCI  20
$$

COZ042>045-048>051-090-091-180500-
...NORTHEAST COLORADO...

CITY           SKY/WX    TMP DP  RH WIND       PRES   REMARKS
GREELEY ARPT   MOCLDY    23  14  68 SE5       29.98R WCI  17
AKRON          FOG       22  21  96 S8        29.99R VSB 3/4 WCI  12
BURLINGTON     FOG       24  22  91 SE6       30.02S VSB 1/2 WCI  17
WRAY           CLOUDY   N/A N/A N/A SE6       30.06R FOG
STERLING       CLOUDY    27  27 100 S5        30.02R WCI  21
HOLYOKE        NOT AVBL
FORT MORGAN    CLOUDY    21  19  89 CALM      30.00S
$$

COZ086-089-092>099-180500-
...SOUTHEAST COLORADO...

CITY           SKY/WX    TMP DP  RH WIND       PRES   REMARKS
PUEBLO         NOT AVBL
LA JUNTA       FLURRIES  28  24  85 NE3       30.02S
LAMAR          CLOUDY    29  28  96 NE7       30.01S FOG     WCI  22
SPRINGFIELD      N/A     25  24  96 NW13      29.99R WCI  14
$$



USA.gov is the U.S. government's official web portal to all federal, state and local government web resources and services.